Location: Newark
(45.5167°N, 11.1667°E)
Time: 21:36:40
(UTC+00:00)

Explorer 7 - Pass Details

Date: 16 December 2019
Orbit: 485 x 679 km, 50.3° (Epoch: 26 January)

Event Time Altitude Azimuth Distance (km) Brightness Sun altitude
Rises 15:18:55 0° 273° (W) 2,984 11.5 1.1°
Reaches altitude 10° 15:21:19 10° 279° (W) 2,091 10.5 0.8°
Maximum altitude 15:26:02 49° 354° (N) 877 7.7 0.1°
Drops below altitude 10° 15:30:49 10° 70° (ENE) 2,118 9.2 -0.6°
Sets 15:33:15 0° 76° (ENE) 3,027 10.0 -0.9°
